Wind_Speed
22 22 21 21 20 20 21 22 22 21 21 22 23 23 22 22 21 20 20 20 21 21 21 21 21 20 20 20 20 19 19 19 19 18 19 19 18 19 19 19 19 19 19 19
23 23 23 23 22 22 23 23 24 23 22 22 24 24 23 23 23 22 21 22 22 23 23 22 22 21 21 21 21 20 20 20 20 19 19 19 19 19 19 19 20 20 20 20
24 24 25 25 23 24 24 24 24 24 24 23 24 24 24 25 25 25 24 23 23 23 24 24 23 23 22 22 23 22 22 22 22 21 20 20 20 20 20 20 20 20 20 20
26 25 27 26 24 25 26 26 25 25 25 25 25 26 26 26 27 26 25 25 25 25 25 24 24 24 24 24 24 24 23 23 23 22 22 21 21 20 20 20 20 20 20 20
26 27 27 26 25 25 25 26 26 26 27 27 27 27 28 27 27 28 27 27 27 27 27 26 25 25 25 25 25 25 24 24 24 24 23 22 21 21 20 20 20 20 20 20
28 28 28 27 25 26 26 27 26 26 27 28 28 29 29 28 28 28 28 28 28 28 28 27 27 27 26 25 25 25 25 24 24 24 23 22 21 21 21 20 20 21 21 21
29 29 29 28 28 27 27 27 27 27 28 29 29 30 30 30 30 29 28 29 29 29 29 29 28 28 27 26 25 25 26 25 24 24 23 22 22 22 21 21 21 21 21 21
29 30 30 28 27 28 28 28 28 28 29 30 30 30 30 31 31 30 30 29 30 30 30 29 29 28 27 27 26 26 26 25 24 24 23 23 22 22 21 21 21 21 21 21
28 29 29 28 28 29 29 29 29 29 30 30 30 31 30 31 31 31 31 30 30 30 30 29 29 28 28 27 26 26 26 25 25 24 23 23 23 22 22 21 21 21 21 21
28 28 29 28 29 30 30 30 30 30 30 31 31 31 31 31 31 31 31 31 30 30 30 30 29 28 28 28 27 26 26 25 25 25 24 23 23 23 23 23 22 22 22 22
30 29 30 29 29 29 30 31 31 30 30 32 32 32 32 31 31 31 30 30 30 30 29 29 29 28 28 28 27 26 26 26 26 25 25 24 24 24 24 24 24 24 24 24
30 30 31 30 30 31 31 31 32 32 32 32 32 32 32 31 31 30 31 31 30 30 29 29 29 28 28 28 27 26 26 26 26 26 26 25 25 24 25 25 25 25 25 25
30 31 32 31 31 31 31 32 33 34 34 33 33 33 33 32 31 30 30 31 30 29 29 29 29 29 29 28 28 27 27 27 26 26 27 26 26 25 25 25 25 25 26 25
30 31 32 32 31 30 30 32 33 33 33 33 33 33 33 32 31 30 30 30 30 30 29 30 29 29 29 29 29 28 28 28 28 27 27 27 27 26 26 26 26 26 27 27
29 30 31 31 31 31 32 32 33 34 34 34 33 32 31 32 32 31 31 31 30 30 30 30 30 30 31 30 30 29 29 29 29 29 28 28 27 27 27 28 28 28 28 28
29 30 30 31 32 32 33 33 33 33 33 33 33 33 33 33 32 32 32 32 31 30 31 31 31 31 32 31 30 30 30 30 30 30 29 29 29 28 28 28 28 29 29 29
31 30 30 31 32 33 34 34 34 33 33 33 33 33 33 33 33 32 31 32 32 31 31 31 31 31 31 31 30 30 31 30 30 30 30 30 30 30 30 29 29 30 30 30
31 30 30 32 32 33 34 34 34 33 33 33 33 32 32 32 31 31 30 30 31 31 31 31 31 30 30 31 30 30 29 29 29 29 30 30 30 30 30 30 30 30 30 31
30 31 31 32 32 33 33 33 33 33 32 32 32 32 32 31 31 31 30 30 30 30 30 31 30 30 30 29 29 29 29 29 29 30 29 30 31 31 31 30 30 30 30 31
31 31 31 31 31 31 31 31 31 31 31 31 31 31 31 31 31 31 31 31 30 30 30 30 30 30 30 29 29 29 29 29 29 30 30 30 31 30 31 31 30 30 30 31
31 32 32 31 31 31 31 30 30 30 30 30 30 30 30 31 31 31 31 30 29 30 30 30 29 30 30 30 30 30 31 30 30 30 31 31 31 31 31 31 31 31 31 31
30 30 30 30 30 30 30 30 30 30 30 30 30 29 29 29 29 30 30 30 29 29 29 30 30 29 29 30 31 31 31 31 31 32 32 32 33 33 33 32 32 32 32 32
29 29 29 29 29 29 29 30 30 30 30 30 30 29 28 28 28 28 28 29 29 28 29 29 30 30 30 30 30 31 31 32 32 32 33 33 34 34 33 33 33 33 33 33
28 29 29 29 28 28 28 29 29 29 29 29 29 29 29 28 28 27 28 29 29 29 29 29 30 31 31 31 31 31 31 31 32 33 33 33 33 33 33 33 34 34 34 33
27 27 27 28 28 28 28 28 28 29 29 29 29 29 29 28 28 27 27 28 28 28 28 28 29 30 31 30 30 31 31 31 32 32 33 33 32 33 33 33 33 33 33 33
27 27 27 27 27 27 27 28 28 28 29 29 29 28 28 28 28 28 28 27 27 27 27 28 29 30 30 30 31 31 31 32 32 32 32 32 32 32 33 34 34 34 33 34
25 25 26 26 26 26 27 27 28 28 28 29 28 27 27 27 27 28 28 27 27 27 27 27 28 29 30 31 31 32 31 32 32 32 33 33 33 32 32 33 33 33 33 32
Wind_Direction
257 257 258 260 262 263 262 262 263 266 268 271 275 278 277 278 278 280 277 274 274 274 274 275 275 274 272 270 268 269 270 271 272 273 275 274 274 273 275 277 276 274 275 274
256 257 257 259 262 264 266 265 264 265 266 268 272 275 275 277 278 279 278 276 274 273 272 273 274 274 273 271 268 268 270 270 271 272 275 276 276 274 274 276 277 276 275 275
258 258 258 260 264 266 267 267 267 266 266 267 270 274 276 277 276 277 277 276 274 273 272 272 272 272 271 270 269 269 270 269 270 272 274 275 275 274 273 275 276 277 276 275
259 259 260 264 265 267 268 267 267 268 267 267 269 272 273 276 276 276 276 275 274 273 273 272 271 271 271 270 269 269 270 269 270 270 272 273 272 272 271 274 274 275 275 275
259 260 263 265 266 267 268 267 267 268 267 268 270 271 271 273 274 276 276 275 274 273 273 272 272 271 270 269 268 268 268 268 267 268 269 270 270 269 269 272 273 272 272 273
259 259 261 265 265 267 268 268 268 268 268 270 271 272 271 272 274 274 273 274 273 272 272 272 271 270 269 267 266 266 265 265 266 266 267 267 268 268 268 270 271 272 272 273
260 261 262 265 267 267 266 269 270 269 269 271 272 274 273 273 273 273 273 272 272 272 271 271 271 270 269 268 266 265 264 264 265 265 265 265 267 268 268 268 270 271 272 273
261 261 261 265 266 267 269 270 272 271 270 270 272 273 273 272 272 272 272 272 272 272 271 270 269 268 267 267 266 264 264 264 264 265 265 264 266 267 267 268 270 272 272 273
262 263 265 266 265 267 268 269 270 272 272 272 273 273 273 272 271 271 272 272 272 271 270 268 268 267 266 266 265 263 262 262 263 263 265 265 265 266 266 267 269 270 271 273
261 262 264 265 266 266 268 268 268 269 270 271 273 275 275 272 271 272 272 272 271 270 269 267 266 265 265 265 264 263 261 261 261 262 264 265 264 265 265 266 269 270 271 272
262 262 263 264 266 268 267 267 268 270 272 272 273 275 275 273 273 273 272 272 271 269 268 267 266 264 264 265 263 260 260 260 261 262 263 264 265 264 264 266 269 270 271 271
265 265 266 266 266 267 268 268 269 271 271 273 274 275 274 273 272 272 271 271 270 269 267 266 265 264 263 263 262 259 259 260 262 263 264 265 265 265 265 265 267 270 271 272
268 268 267 267 269 268 269 270 270 271 270 273 275 274 272 271 270 270 270 270 269 268 266 265 264 263 262 261 260 259 258 259 261 263 265 266 266 265 264 265 267 269 271 273
269 269 268 268 270 270 271 271 270 270 270 273 275 274 272 271 269 269 269 268 268 267 266 264 264 263 262 261 260 259 259 259 260 262 263 265 265 264 263 264 266 267 270 273
271 271 269 269 269 270 271 272 272 271 270 272 273 273 272 271 270 269 267 267 266 265 264 264 264 264 263 261 260 259 259 260 260 261 263 264 265 264 264 265 266 268 269 272
272 272 271 270 269 270 271 272 272 272 271 270 271 271 271 270 269 268 265 265 265 264 264 263 263 263 263 261 259 258 258 259 259 260 262 264 265 265 265 265 266 268 270 271
273 272 272 273 272 271 272 273 274 274 272 271 271 271 270 269 269 268 266 264 264 264 263 263 263 264 263 260 258 257 258 258 259 261 262 263 265 266 266 266 267 269 270 271
274 274 275 275 275 275 274 273 273 274 273 273 272 271 271 270 268 266 265 264 263 263 263 263 263 264 263 260 258 257 258 259 260 261 262 263 265 266 266 266 267 268 270 272
276 276 277 279 278 278 276 275 273 273 273 273 272 271 270 269 267 265 263 263 263 263 264 263 262 262 262 259 257 257 258 259 261 261 262 263 264 266 266 267 267 268 270 272
279 280 280 280 279 279 279 278 275 274 273 272 272 270 270 269 267 265 263 263 263 263 263 263 262 261 260 258 258 258 258 259 260 261 262 264 266 266 267 267 268 269 271 273
281 281 280 279 279 279 279 278 276 274 273 272 271 271 271 269 267 265 264 263 262 262 262 262 262 261 260 259 258 258 258 259 260 261 263 266 267 267 267 268 269 270 272 274
283 282 280 279 278 278 279 278 277 275 274 272 272 272 271 270 267 265 264 264 263 263 262 262 263 263 263 261 260 259 259 260 261 262 264 266 267 267 267 268 270 271 272 273
281 280 280 279 279 279 280 279 277 276 274 273 273 273 271 269 268 266 264 262 262 262 262 262 262 263 264 263 262 260 260 261 262 263 265 266 267 267 267 268 269 270 270 272
280 279 279 280 281 281 281 281 279 276 274 273 272 273 272 270 268 266 264 263 262 262 260 261 263 264 264 264 263 262 261 263 263 264 266 267 267 267 267 267 268 268 270 272
280 281 281 280 282 282 282 282 280 276 273 273 271 271 272 268 266 265 265 265 263 263 262 262 263 264 265 265 264 262 262 263 264 266 267 266 266 267 267 269 269 269 271 272
279 281 281 282 284 284 284 283 280 276 273 271 270 270 270 269 267 265 264 264 265 264 263 263 264 264 265 265 264 262 263 263 264 267 267 267 268 269 270 270 270 270 271 272
281 283 286 288 287 286 285 284 282 278 276 274 270 268 269 268 267 266 266 266 266 266 266 265 266 266 266 265 264 263 264 265 267 268 268 268 269 270 269 269 269 269 270 271
Height
5808 5809 5810 5810 5811 5812 5813 5813 5814 5815 5815 5814 5813 5812 5812 5812 5812 5811 5811 5811 5811 5811 5811 5811 5811 5811 5811 5811 5811 5812 5812 5812 5813 5813 5813 5813 5813 5813 5813 5813 5813 5813 5813 5813
5802 5803 5803 5804 5806 5806 5807 5807 5808 5808 5809 5809 5808 5807 5806 5806 5806 5805 5805 5805 5805 5805 5805 5805 5805 5805 5805 5805 5806 5806 5806 5806 5807 5807 5807 5807 5807 5807 5807 5807 5807 5807 5807 5807
5795 5797 5796 5797 5800 5800 5801 5801 5801 5801 5803 5802 5802 5801 5801 5800 5800 5799 5799 5799 5799 5798 5798 5798 5798 5799 5799 5799 5799 5800 5800 5800 5800 5801 5801 5801 5801 5801 5801 5801 5801 5801 5801 5801
5788 5790 5789 5794 5794 5794 5794 5794 5795 5795 5795 5795 5795 5795 5794 5794 5793 5792 5792 5792 5792 5791 5791 5791 5791 5792 5792 5792 5793 5793 5793 5794 5794 5794 5795 5795 5795 5795 5795 5795 5795 5796 5796 5795
5781 5781 5782 5785 5787 5786 5786 5786 5787 5787 5787 5787 5788 5787 5787 5786 5785 5785 5785 5785 5784 5784 5784 5784 5784 5784 5784 5785 5785 5786 5786 5787 5787 5788 5788 5788 5788 5789 5789 5789 5789 5789 5790 5789
5773 5773 5775 5778 5779 5779 5780 5779 5780 5779 5779 5780 5779 5779 5779 5778 5778 5778 5777 5777 5777 5776 5776 5776 5776 5776 5776 5777 5778 5778 5779 5780 5780 5780 5781 5782 5782 5782 5783 5783 5783 5783 5783 5783
5765 5765 5766 5770 5771 5771 5772 5773 5772 5772 5771 5772 5771 5771 5771 5770 5770 5769 5769 5769 5768 5768 5768 5768 5768 5768 5768 5769 5770 5771 5771 5772 5773 5773 5774 5775 5776 5776 5776 5777 5777 5777 5777 5777
5757 5758 5761 5762 5762 5763 5763 5763 5763 5763 5763 5763 5763 5762 5762 5761 5761 5761 5761 5760 5760 5759 5759 5759 5760 5760 5761 5761 5762 5763 5763 5765 5766 5766 5767 5768 5769 5769 5769 5770 5770 5771 5771 5771
5750 5752 5753 5752 5753 5754 5754 5755 5755 5754 5754 5754 5754 5754 5753 5753 5752 5752 5752 5751 5751 5751 5751 5751 5751 5752 5752 5753 5754 5755 5756 5757 5758 5759 5760 5761 5762 5762 5763 5764 5764 5764 5765 5765
5741 5742 5743 5744 5744 5745 5745 5745 5745 5745 5745 5745 5745 5745 5744 5744 5743 5743 5743 5742 5742 5742 5742 5742 5743 5743 5744 5745 5746 5747 5748 5750 5751 5752 5753 5754 5755 5755 5756 5757 5757 5758 5758 5758
5733 5734 5734 5735 5735 5736 5736 5736 5736 5736 5736 5736 5736 5736 5735 5734 5734 5734 5733 5733 5733 5733 5733 5734 5735 5735 5736 5736 5737 5739 5740 5742 5743 5744 5746 5746 5747 5748 5749 5750 5750 5750 5751 5751
5725 5726 5726 5726 5726 5726 5726 5726 5727 5727 5727 5726 5726 5726 5725 5725 5725 5725 5724 5724 5724 5724 5725 5725 5726 5727 5728 5728 5729 5731 5732 5734 5735 5736 5738 5739 5739 5740 5741 5742 5742 5743 5743 5743
5716 5716 5716 5717 5716 5717 5717 5717 5717 5717 5717 5717 5716 5716 5715 5715 5715 5715 5715 5715 5715 5715 5716 5716 5717 5718 5719 5720 5721 5722 5724 5726 5727 5728 5729 5730 5731 5732 5733 5734 5734 5735 5735 5735
5708 5707 5707 5708 5707 5707 5707 5707 5707 5707 5707 5706 5706 5706 5705 5705 5706 5706 5706 5706 5706 5706 5707 5707 5708 5709 5710 5711 5712 5714 5715 5717 5719 5720 5721 5722 5723 5724 5725 5726 5727 5727 5727 5727
5699 5699 5699 5698 5698 5698 5698 5698 5697 5697 5696 5696 5696 5696 5695 5695 5696 5696 5696 5696 5696 5697 5698 5698 5699 5700 5701 5702 5703 5705 5707 5708 5710 5711 5712 5713 5714 5715 5716 5717 5718 5718 5718 5719
5690 5689 5689 5689 5688 5688 5688 5688 5687 5687 5686 5686 5686 5686 5686 5685 5685 5685 5686 5686 5686 5687 5688 5689 5690 5691 5691 5692 5694 5696 5697 5699 5700 5702 5703 5704 5705 5705 5706 5707 5708 5709 5709 5709
5681 5680 5680 5679 5679 5678 5678 5677 5677 5676 5676 5675 5675 5675 5675 5675 5675 5675 5675 5676 5676 5677 5678 5679 5680 5681 5681 5683 5684 5686 5688 5689 5691 5692 5693 5694 5695 5696 5697 5698 5698 5699 5699 5699
5671 5671 5670 5669 5669 5668 5668 5667 5666 5666 5666 5665 5665 5665 5664 5664 5664 5664 5665 5665 5666 5667 5668 5669 5670 5671 5672 5673 5675 5677 5678 5680 5681 5682 5684 5685 5686 5686 5687 5688 5688 5689 5689 5689
5662 5662 5661 5660 5659 5658 5657 5657 5656 5656 5655 5655 5655 5654 5654 5654 5654 5654 5654 5655 5657 5658 5659 5659 5660 5661 5662 5664 5665 5668 5669 5671 5672 5673 5674 5675 5676 5677 5677 5678 5678 5679 5679 5679
5653 5652 5651 5650 5649 5648 5647 5647 5646 5646 5646 5645 5645 5644 5644 5644 5644 5644 5645 5646 5647 5648 5649 5649 5650 5652 5653 5655 5656 5658 5660 5661 5663 5664 5665 5666 5666 5667 5667 5668 5668 5669 5669 5669
5644 5643 5642 5641 5640 5639 5638 5637 5637 5636 5636 5636 5635 5635 5635 5635 5635 5635 5636 5637 5638 5638 5639 5640 5641 5643 5644 5645 5647 5649 5650 5652 5653 5654 5655 5656 5657 5657 5658 5658 5658 5658 5659 5659
5635 5633 5632 5631 5630 5630 5629 5628 5627 5627 5627 5626 5626 5626 5626 5626 5626 5626 5627 5628 5629 5629 5630 5631 5632 5634 5635 5636 5637 5639 5640 5642 5643 5644 5645 5646 5646 5647 5648 5648 5648 5648 5648 5648
5626 5624 5623 5622 5621 5620 5619 5618 5618 5617 5617 5617 5617 5617 5617 5617 5617 5617 5618 5619 5620 5620 5621 5622 5623 5624 5625 5626 5627 5629 5630 5632 5633 5634 5635 5635 5636 5636 5637 5637 5638 5638 5638 5638
5617 5616 5615 5614 5612 5611 5610 5609 5608 5608 5607 5607 5607 5607 5608 5608 5608 5609 5609 5610 5611 5611 5612 5614 5614 5615 5616 5616 5618 5619 5620 5621 5622 5623 5624 5625 5625 5625 5626 5627 5627 5627 5627 5627
5609 5607 5606 5605 5604 5603 5601 5600 5599 5599 5598 5598 5598 5598 5599 5599 5600 5600 5601 5601 5602 5602 5603 5604 5605 5606 5606 5607 5608 5609 5611 5611 5612 5613 5613 5614 5614 5615 5615 5616 5616 5616 5616 5616
5601 5600 5598 5597 5595 5594 5593 5592 5590 5590 5589 5589 5589 5590 5590 5590 5591 5591 5592 5592 5592 5593 5594 5595 5595 5596 5597 5597 5598 5599 5601 5601 5602 5603 5603 5603 5604 5604 5604 5604 5605 5605 5605 5605
5593 5591 5590 5588 5587 5585 5584 5582 5582 5581 5580 5580 5580 5580 5581 5581 5581 5582 5582 5583 5583 5584 5584 5585 5586 5586 5587 5587 5588 5589 5590 5591 5591 5592 5592 5592 5593 5593 5593 5593 5593 5593 5593 5593